Menomonie, WI

1:45 AM CDT on June 25, 2018 (GMT -0500)
Menomonie

Weather History for KLUM - June, 2014

Change the Weather History Date:

Wednesday, June 18, 2014

  Actual Average (KEAU) Record (KEAU)
Temperature  
Mean Temperature 72 °F -  
Max Temperature 79 °F 76 °F 96 °F (1995)
Min Temperature 64 °F 55 °F 44 °F (1999)
Cooling Degree Days 6    
Growing Degree Days 22 (Base 50)    
Moisture  
Dew Point 66 °F    
Average Humidity 83    
Maximum Humidity 99    
Minimum Humidity 60    
Precipitation  
Precipitation 1.41 in - - ()
Sea Level Pressure  
Sea Level Pressure 29.91 in    
Wind  
Wind Speed 7 mph (East)    
Max Wind Speed 14 mph    
Max Gust Speed 21 mph    
Visibility 9 miles    
Events Rain , Thunderstorm    
Averages and records for this station are not official NWS values.
T = Trace of Precipitation, MM = Missing Value Source: NWS Daily Summary

Daily Weather History Graph

Daily Weather History Graph

Search for Another Location

Airport or City:

Astronomy

Jun. 18, 2014 Rise Set
Actual Time 5:20 AM CDT 8:56 PM CDT
Civil Twilight 4:43 AM CDT 9:33 PM CDT
Nautical Twilight 3:53 AM CDT 10:23 PM CDT
Astronomical Twilight 2:48 AM CDT 11:29 PM CDT
Moon 12:11 AM CDT (6/18) 11:59 AM CDT (6/18)
Length of Visible Light 16h 50m
Length of Day
15h 35m
Waning Gibbous, 62% of the Moon is Illuminated
Jun 18
Waning Gibbous
Jun 19
Last Quarter
Jun 27
New
Jul 5
First Quarter
Jul 12
Full

Hourly Weather History & Observations

Time (CDT) Temp. Dew Point Humidity Pressure Visibility Wind Dir Wind Speed Gust Speed Precip Events Conditions
12:15 AM 74.1 °F 68.4 °F 82% 29.86 in 10.0 mi North 3.5 mph - N/A Thunderstorm Overcast
12:35 AM 74.3 °F 66.9 °F 78% 29.86 in 10.0 mi ENE 3.5 mph - N/A Thunderstorm Unknown
1:15 AM 73.6 °F 66.7 °F 79% 29.84 in 10.0 mi North 5.8 mph - N/A Thunderstorm Overcast
1:35 AM 73.8 °F 66.2 °F 77% 29.84 in 10.0 mi NNE 8.1 mph - N/A   Overcast
1:55 AM 73.0 °F 66.6 °F 80% 29.83 in 10.0 mi NE 8.1 mph - N/A Rain Light Rain
2:15 AM 72.5 °F 66.4 °F 81% 29.82 in 10.0 mi NE 5.8 mph - N/A   Mostly Cloudy
2:35 AM 72.0 °F 66.2 °F 82% 29.83 in 10.0 mi ENE 6.9 mph - N/A   Overcast
2:55 AM 71.6 °F 66.2 °F 83% 29.82 in 10.0 mi NE 5.8 mph - N/A Thunderstorm Overcast
3:15 AM 71.6 °F 66.0 °F 82% 29.81 in 10.0 mi North 3.5 mph - N/A Thunderstorm Thunderstorm
3:35 AM 71.2 °F 66.7 °F 86% 29.81 in 5.0 mi ENE 9.2 mph - 0.07 in Rain , Thunderstorm Heavy Thunderstorms and Rain
3:55 AM 68.9 °F 68.0 °F 97% 29.83 in 7.0 mi East 5.8 mph - 0.15 in Rain , Thunderstorm Heavy Thunderstorms and Rain
4:15 AM 68.9 °F 68.0 °F 97% 29.80 in 7.0 mi ENE 9.2 mph - 0.06 in Rain , Thunderstorm Light Thunderstorms and Rain
4:35 AM 68.4 °F 67.6 °F 98% 29.83 in 4.0 mi South 5.8 mph - 0.16 in Rain , Thunderstorm Thunderstorms and Rain
4:55 AM 68.2 °F 67.5 °F 98% 29.85 in 1.0 mi NW 6.9 mph - 0.74 in Rain , Thunderstorm Heavy Thunderstorms and Rain
5:15 AM 65.1 °F 64.6 °F 98% 29.84 in 7.0 mi NNE 9.2 mph - 0.13 in Rain , Thunderstorm Rain
5:35 AM 64.9 °F 64.4 °F 98% 29.83 in 10.0 mi ENE 9.2 mph - 0.15 in Rain , Thunderstorm Rain
5:55 AM 66.4 °F 65.8 °F 98% 29.84 in 10.0 mi East 10.4 mph - 0.15 in Thunderstorm Scattered Clouds
6:15 AM 66.7 °F 66.2 °F 98% 29.86 in 10.0 mi Calm Calm - N/A Thunderstorm Scattered Clouds
6:35 AM 66.7 °F 66.2 °F 98% 29.88 in 10.0 mi East 10.4 mph - 0.01 in Rain , Thunderstorm Light Thunderstorms and Rain
6:55 AM 66.6 °F 66.2 °F 99% 29.89 in 10.0 mi East 9.2 mph - 0.03 in Rain , Thunderstorm Thunderstorms and Rain
7:15 AM 66.6 °F 66.2 °F 99% 29.87 in 7.0 mi East 10.4 mph - 0.05 in Rain Rain
7:35 AM 66.6 °F 66.2 °F 99% 29.86 in 7.0 mi East 5.8 mph - 0.09 in Rain , Thunderstorm Rain
7:55 AM 66.7 °F 66.4 °F 99% 29.88 in 7.0 mi East 8.1 mph - 0.14 in Rain Light Rain
8:15 AM 66.7 °F 66.4 °F 99% 29.89 in 7.0 mi East 10.4 mph - 0.05 in Rain Rain
8:35 AM 66.6 °F 66.2 °F 99% 29.89 in 7.0 mi East 6.9 mph - 0.11 in Rain Rain
9:15 AM 66.4 °F 66.2 °F 99% 29.91 in 10.0 mi SE 3.5 mph - 0.03 in Rain Light Rain
9:35 AM 66.6 °F 66.2 °F 99% 29.92 in 5.0 mi Calm Calm - 0.06 in Rain Rain
9:55 AM 66.7 °F 66.4 °F 99% 29.91 in 10.0 mi East 5.8 mph - 0.09 in Rain Light Rain
10:15 AM 67.3 °F 67.1 °F 99% 29.91 in 10.0 mi ENE 5.8 mph - N/A   Scattered Clouds
10:35 AM 67.6 °F 67.3 °F 99% 29.90 in 10.0 mi ESE 5.8 mph - N/A Rain Light Rain
10:55 AM 67.8 °F 67.3 °F 98% 29.91 in 10.0 mi East 9.2 mph - N/A   Scattered Clouds
11:15 AM 67.3 °F 67.1 °F 99% 29.92 in 10.0 mi ENE 6.9 mph - N/A   Overcast
11:35 AM 67.6 °F 67.3 °F 99% 29.92 in 10.0 mi ENE 10.4 mph - N/A   Mostly Cloudy
11:55 AM 68.0 °F 67.5 °F 98% 29.92 in 10.0 mi NE 8.1 mph - N/A   Scattered Clouds
12:15 PM 70.7 °F 70.2 °F 98% 29.93 in 10.0 mi ENE 6.9 mph - N/A   Mostly Cloudy
12:35 PM 72.5 °F 66.2 °F 81% 29.94 in 10.0 mi East 9.2 mph - N/A   Mostly Cloudy
1:15 PM 73.6 °F 65.7 °F 76% 29.93 in 10.0 mi ENE 13.8 mph 20.7 mph N/A   Scattered Clouds
1:35 PM 75.6 °F 66.0 °F 72% 29.93 in 10.0 mi East 12.7 mph - N/A   Scattered Clouds
1:55 PM 75.7 °F 66.4 °F 73% 29.94 in 10.0 mi East 10.4 mph - N/A   Clear
2:35 PM 77.0 °F 66.0 °F 69% 29.94 in 10.0 mi ESE 10.4 mph - N/A   Mostly Cloudy
2:55 PM 77.7 °F 66.0 °F 67% 29.94 in 10.0 mi ESE 12.7 mph 16.1 mph N/A   Mostly Cloudy
3:35 PM 78.1 °F 65.5 °F 65% 29.94 in 10.0 mi ESE 9.2 mph - N/A   Scattered Clouds
3:55 PM 77.7 °F 66.4 °F 68% 29.94 in 10.0 mi ESE 8.1 mph - N/A   Mostly Cloudy
4:15 PM 78.4 °F 66.0 °F 66% 29.94 in 10.0 mi SE 11.5 mph - N/A   Mostly Cloudy
4:35 PM 78.6 °F 66.4 °F 66% 29.93 in 10.0 mi ESE 10.4 mph - N/A   Mostly Cloudy
4:55 PM 79.3 °F 66.2 °F 64% 29.94 in 10.0 mi East 10.4 mph - N/A   Scattered Clouds
5:15 PM 78.4 °F 65.5 °F 64% 29.94 in 10.0 mi ESE 11.5 mph - N/A   Scattered Clouds
5:35 PM 79.3 °F 65.1 °F 62% 29.94 in 10.0 mi ESE 10.4 mph - N/A   Scattered Clouds
5:55 PM 79.2 °F 64.4 °F 60% 29.94 in 10.0 mi East 8.1 mph - N/A   Clear
6:15 PM 79.2 °F 64.0 °F 60% 29.95 in 10.0 mi ESE 11.5 mph 16.1 mph N/A   Clear
6:35 PM 79.2 °F 64.8 °F 61% 29.94 in 10.0 mi East 8.1 mph - N/A   Clear
6:55 PM 78.8 °F 64.9 °F 62% 29.96 in 10.0 mi East 8.1 mph - N/A   Scattered Clouds
7:15 PM 78.1 °F 65.8 °F 66% 29.96 in 10.0 mi East 9.2 mph - N/A   Scattered Clouds
7:35 PM 77.5 °F 64.8 °F 65% 29.96 in 10.0 mi East 9.2 mph - N/A   Clear
7:55 PM 77.0 °F 64.8 °F 66% 29.96 in 10.0 mi East 6.9 mph - N/A   Clear
8:15 PM 75.6 °F 65.5 °F 71% 29.96 in 10.0 mi East 6.9 mph - N/A   Clear
8:35 PM 74.8 °F 65.3 °F 72% 29.96 in 10.0 mi East 6.9 mph - N/A   Clear
8:55 PM 73.6 °F 64.8 °F 74% 29.97 in 10.0 mi East 8.1 mph - N/A   Clear
9:15 PM 72.7 °F 64.9 °F 77% 29.98 in 10.0 mi East 6.9 mph - N/A   Clear
9:35 PM 72.3 °F 64.4 °F 76% 29.99 in 10.0 mi East 8.1 mph - N/A   Clear
9:55 PM 71.2 °F 64.4 °F 79% 30.00 in 10.0 mi East 6.9 mph - N/A   Clear
10:15 PM 71.6 °F 64.2 °F 77% 30.00 in 10.0 mi East 9.2 mph - N/A   Clear
10:35 PM 70.9 °F 64.6 °F 80% 30.00 in 10.0 mi East 8.1 mph - N/A   Clear
10:55 PM 70.2 °F 64.6 °F 82% 30.00 in 10.0 mi ENE 8.1 mph - N/A   Clear
11:15 PM 70.0 °F 64.6 °F 83% 30.00 in 10.0 mi ENE 11.5 mph - N/A   Scattered Clouds
11:35 PM 69.8 °F 64.4 °F 83% 29.99 in 10.0 mi ENE 13.8 mph 18.4 mph N/A   Scattered Clouds
11:55 PM 69.1 °F 63.7 °F 83% 29.99 in 10.0 mi East 11.5 mph - N/A   Clear